Overview Statistics Trail Chart Weather Telemetry Raw packets
 

This is the latest recevied weather packets stored in our database for station/object KC9DRE. If no packets are shown the sender has not sent any weather packets the latest 10 day(s).

<< 99 100 101 102 103 104 105 >>
Time Temp. Humidity Pressure Rain* Wind** Luminosity Snow
1777141208 23.89° C 56% 1011.9 hPa 0 mm - 914 W/m² -
1777140904 23.89° C 53% 1011.7 hPa 0 mm - 880 W/m² -
1777140600 23.89° C 53% 1011.8 hPa 0 mm - 880 W/m² -
1777140297 23.89° C 54% 1011.8 hPa 0 mm - 880 W/m² -
1777139995 24.44° C 55% 1011.9 hPa 0 mm - 893 W/m² -
1777139692 23.89° C 59% 1012 hPa 0 mm - 883 W/m² -
1777139387 22.78° C 57% 1012 hPa 0 mm - 890 W/m² -
1777139084 22.22° C 63% 1012.1 hPa 0 mm - 892 W/m² -
1777138780 22.22° C 61% 1012.1 hPa 0 mm - 939 W/m² -
1777138476 22.78° C 58% 1012.2 hPa 0 mm - 801 W/m² -
1777138172 22.78° C 55% 1012.2 hPa 0 mm - 920 W/m² -
1777137868 22.22° C 60% 1012.2 hPa 0 mm - 929 W/m² -
1777137564 22.22° C 61% 1012.2 hPa 0 mm - 935 W/m² -
1777137262 22.22° C 64% 1012.2 hPa 0 mm - 907 W/m² -
1777136959 21.67° C 65% 1012.3 hPa 0 mm - 171 W/m² -
1777136655 21.67° C 63% 1012.3 hPa 0 mm - 177 W/m² -
1777136353 21.67° C 68% 1012.2 hPa 0 mm - 961 W/m² -
1777136050 21.67° C 67% 1012.5 hPa 0 mm - 950 W/m² -
1777135745 22.22° C 62% 1012.3 hPa 0 mm - 951 W/m² -
1777135442 21.11° C 65% 1012.4 hPa 0 mm - 929 W/m² -
1777135139 21.11° C 66% 1012.4 hPa 0 mm - 631 W/m² -
1777134836 21.67° C 63% 1012.5 hPa 0 mm - 948 W/m² -
1777134532 21.67° C 65% 1012.5 hPa 0 mm - 926 W/m² -
1777134229 21.11° C 73% 1012.4 hPa 0 mm - 940 W/m² -
1777133926 20° C 70% 1012.4 hPa 0 mm - 779 W/m² -

* Rain latest hour (hover to see other rain measurements)
** Current wind speed in m/s (hover to see current wind gust speed)